Wind_Speed
52 52 50 48 46 43 40 39 37 34 33 32 31 29 29 29 32 34 34 32 28 25 24 26 28 30 31 33 35 35 30 28 27 25 26 29 26 25 28 28 21 15 14 12 11 11 11 12 13 13 14 15 15 15 14 13 12 12 11 11 12 14 16 17 17 16 15 15 15 16 16 16 16 16 15 14 14 14 15 17 18 19 19 19 19 18
53 52 50 47 45 43 41 39 38 35 34 34 32 31 30 29 31 33 33 32 28 23 24 26 28 30 33 34 37 35 30 27 26 23 21 24 24 23 27 25 19 15 14 12 10 9 10 12 13 13 14 14 15 14 14 13 12 13 13 13 14 15 17 18 18 17 16 16 17 17 17 17 17 17 16 15 15 15 16 16 18 19 19 19 19 19
54 54 51 48 46 44 42 40 38 37 36 35 33 32 31 29 30 32 32 30 26 24 26 28 30 33 34 35 37 34 30 28 28 25 23 24 22 22 24 23 19 17 14 12 11 9 9 11 13 14 14 14 15 14 14 14 15 15 15 15 16 16 17 17 18 18 17 17 17 18 18 18 18 18 17 17 17 16 16 17 18 18 19 20 20 20
55 54 51 49 47 45 44 41 39 38 37 36 34 32 31 29 29 31 31 28 27 27 29 30 32 34 35 35 36 34 31 30 29 28 26 24 24 26 28 25 21 18 14 12 10 8 8 11 13 14 15 15 15 15 15 16 17 17 17 17 17 17 17 17 18 18 18 18 18 18 18 19 19 19 18 18 18 18 17 17 18 18 19 20 20 21
53 52 51 49 48 46 45 43 41 39 39 37 35 33 32 30 29 30 30 29 29 30 30 32 34 36 36 35 35 33 32 30 29 28 26 25 25 28 28 23 20 16 13 12 10 7 8 10 12 13 15 16 16 16 16 17 18 18 18 18 18 18 17 17 18 17 17 18 18 19 19 19 19 20 19 19 19 19 19 18 18 19 19 20 20 21
53 52 50 49 48 47 47 45 43 41 40 38 37 35 32 30 29 30 31 31 32 32 31 33 35 36 36 35 34 33 32 29 27 25 24 24 24 25 25 20 17 14 12 12 9 7 8 10 12 13 14 15 16 16 16 17 18 19 19 18 17 17 17 17 17 17 18 19 20 20 20 20 20 21 21 20 20 20 20 19 19 19 19 20 20 20
53 52 50 49 48 48 48 46 44 43 41 40 38 35 33 30 30 32 33 33 34 33 32 34 36 36 35 35 35 34 32 30 27 24 24 25 23 25 27 20 13 12 11 11 9 8 10 10 11 11 12 14 15 14 15 17 18 19 19 18 17 16 17 18 18 18 19 20 21 21 21 22 22 22 22 21 21 21 21 21 20 20 20 20 20 20
53 52 51 50 49 49 49 48 46 44 43 41 38 35 32 31 31 33 34 35 34 33 34 35 37 36 35 35 36 34 33 31 28 26 25 26 23 22 23 18 12 11 10 12 10 8 10 11 11 10 10 12 13 13 15 17 18 19 18 18 17 17 18 18 18 18 19 20 21 21 22 22 23 23 23 23 23 22 22 21 21 21 21 20 20 20
52 52 50 50 50 51 50 48 46 44 43 41 37 34 32 31 32 33 35 35 33 33 35 36 37 37 36 36 36 34 33 33 29 26 25 23 21 20 20 17 13 11 9 11 9 7 10 12 12 12 11 11 12 12 14 16 18 18 18 17 17 17 17 17 17 18 20 21 21 22 22 23 24 24 24 24 24 23 23 22 22 22 21 21 20 20
51 50 49 49 49 50 49 47 45 44 44 40 36 34 33 33 34 35 35 34 33 36 37 36 37 38 37 36 36 35 33 32 28 23 23 21 22 23 22 20 16 11 10 11 9 9 11 13 15 14 13 13 13 13 14 15 17 17 18 18 17 16 16 18 19 20 21 21 21 22 23 24 25 25 25 25 25 24 24 23 23 23 23 22 22 22
49 49 48 48 48 48 48 46 45 44 43 39 35 35 35 34 35 37 37 35 36 39 38 37 38 39 39 37 36 35 32 29 26 23 22 23 24 23 19 18 17 11 11 12 12 12 14 15 17 17 16 15 15 15 15 15 16 17 17 18 17 16 17 19 20 21 21 22 22 23 24 25 25 26 25 25 25 25 25 25 25 25 25 25 24 24
48 48 47 47 47 48 48 46 45 44 43 39 36 36 36 36 37 38 38 37 39 40 38 38 39 40 41 38 36 35 31 29 28 25 25 25 25 23 17 16 18 16 16 17 16 17 18 17 18 18 17 17 18 19 18 18 18 18 18 18 18 17 19 21 22 22 22 23 24 25 25 26 27 27 27 27 27 27 27 26 27 27 27 27 26 26
47 47 47 46 47 48 48 47 47 46 44 40 38 39 39 39 39 40 41 41 42 42 40 40 41 42 42 39 37 36 33 30 29 28 28 26 25 23 17 17 21 23 23 22 19 17 18 18 17 16 16 17 19 21 21 21 21 21 20 19 19 19 20 22 23 24 24 24 25 26 26 27 28 28 28 28 28 28 28 28 28 28 28 28 27 27
48 48 47 47 47 49 49 48 48 49 47 43 41 42 42 42 44 44 45 45 45 44 41 40 42 44 44 41 38 37 35 32 30 29 29 27 25 23 19 19 24 26 25 21 18 15 15 16 15 14 15 17 20 22 22 23 23 23 23 23 22 22 22 23 24 24 24 25 25 26 27 28 29 29 29 29 29 29 28 28 28 28 29 29 28 28
47 48 48 48 48 48 49 48 47 46 44 43 42 42 43 44 45 46 46 46 46 45 42 41 44 46 46 43 40 38 36 34 31 31 30 28 27 27 25 25 26 25 23 20 18 15 14 14 15 15 16 17 19 21 22 23 23 25 25 25 25 24 24 25 25 25 24 25 26 27 29 29 30 30 30 30 30 29 29 29 29 29 29 29 29 29
45 46 46 46 46 46 47 47 46 45 43 42 42 44 45 45 46 46 45 45 45 45 43 43 46 48 46 44 40 38 37 35 33 31 31 30 29 29 29 29 27 23 19 17 16 14 14 15 16 17 18 18 19 21 22 22 23 24 26 27 26 25 25 26 27 26 26 27 27 29 30 31 31 32 32 32 32 31 31 30 30 30 30 30 30 30
45 46 45 45 45 44 44 45 46 45 45 44 45 46 47 47 47 46 46 46 46 46 44 44 46 48 46 44 40 38 37 36 34 32 32 31 29 28 27 26 26 23 20 19 17 17 17 18 18 19 20 20 20 21 22 22 22 24 26 27 27 27 27 28 28 28 28 29 29 30 31 32 32 33 34 35 34 34 33 32 32 31 31 31 31 31
43 44 44 44 44 43 42 43 43 43 44 45 46 48 48 47 47 47 47 48 48 47 46 45 46 47 46 43 40 38 38 36 34 33 33 32 29 28 26 22 23 24 24 23 21 20 19 19 20 20 21 22 23 22 22 22 22 24 26 28 29 29 29 29 29 29 30 30 31 31 32 33 33 34 35 36 36 35 35 34 34 33 33 33 33 32
41 41 41 41 41 41 41 43 44 45 45 45 45 47 47 47 48 49 50 50 50 49 48 46 47 47 45 43 40 38 37 36 35 33 33 32 29 27 25 22 22 23 23 24 23 21 21 21 21 21 22 23 23 22 22 23 24 25 27 29 30 30 30 30 31 31 31 32 33 33 34 34 35 36 37 38 38 37 36 36 35 35 35 35 35 35
40 40 40 39 39 39 41 44 45 48 48 47 46 47 47 47 47 49 50 50 50 50 48 47 47 46 44 43 41 40 38 37 36 34 33 31 29 26 25 24 24 23 23 24 24 23 22 22 21 21 22 23 22 22 22 23 24 25 27 29 30 31 32 32 32 32 32 33 34 35 35 35 36 37 38 38 38 38 38 38 37 37 37 37 37 37
40 39 39 39 39 40 43 45 45 46 48 49 49 49 49 49 49 48 49 49 49 49 49 48 47 44 44 44 43 42 39 37 36 35 34 31 29 27 27 26 26 25 24 25 25 24 24 24 22 21 22 23 22 22 23 25 25 26 28 29 29 30 32 33 33 34 34 34 35 35 35 35 36 37 38 39 40 40 40 39 38 38 38 38 39 39
39 38 37 38 40 41 43 43 42 43 44 46 48 48 48 49 49 49 51 51 50 50 50 48 46 44 44 44 43 42 41 39 36 35 34 32 30 28 28 29 28 27 26 27 27 26 26 25 24 23 24 24 23 23 25 26 26 27 28 29 29 27 28 31 32 33 34 34 34 35 35 36 37 38 40 41 42 42 41 40 39 39 39 39 39 40
39 37 37 38 39 39 40 40 41 41 42 43 45 45 46 48 49 49 50 51 51 51 51 49 48 47 45 43 42 42 41 40 37 35 34 33 32 31 30 30 29 28 28 28 29 28 27 27 27 26 26 26 25 25 25 26 27 28 28 29 29 28 28 29 31 32 33 34 34 35 36 37 38 39 40 41 42 42 42 41 40 40 40 40 41 41
39 37 37 38 38 38 38 38 39 41 42 43 45 46 46 47 48 49 48 48 48 50 50 49 49 47 45 43 42 42 41 40 38 36 35 34 33 32 31 31 30 29 29 29 29 29 29 29 30 29 28 28 28 28 28 28 28 29 29 29 30 30 30 31 31 32 33 33 34 36 37 38 39 40 41 42 43 43 42 41 41 41 41 41 42 42
39 38 38 38 39 39 39 40 41 43 44 45 45 46 47 47 47 49 49 48 48 49 49 49 49 47 45 44 43 42 41 40 38 36 35 34 34 33 32 31 30 30 30 30 30 30 31 31 32 31 30 30 30 30 30 31 31 33 33 33 33 33 33 32 32 33 33 34 35 36 38 39 40 41 42 43 43 43 43 42 42 42 42 42 43 43
38 37 37 38 39 40 41 41 42 44 45 45 44 46 47 47 47 49 50 51 51 50 50 50 50 48 47 46 44 43 42 40 37 36 35 35 35 34 33 33 33 33 33 32 32 33 33 33 33 32 32 32 32 32 33 35 37 38 38 37 36 36 35 34 33 33 34 35 36 37 38 40 41 42 43 44 44 44 43 43 43 42 43 43 44 44
37 36 36 37 38 38 38 39 39 40 42 43 43 45 47 48 47 48 51 52 51 49 50 50 49 49 48 48 46 45 43 41 38 37 36 36 36 36 35 35 35 35 34 34 34 34 34 33 34 34 34 34 35 36 37 38 39 39 38 37 36 36 35 34 33 34 35 36 37 38 39 40 42 43 44 45 45 44 44 44 43 43 43 44 44 44
38 37 37 37 37 38 38 38 38 39 40 41 41 43 45 47 47 48 50 51 50 50 50 50 49 49 49 48 48 46 45 43 40 38 37 37 36 36 35 34 34 34 34 35 36 36 35 35 35 35 35 37 38 39 40 39 38 37 37 36 36 35 35 34 34 35 36 37 38 39 40 41 42 43 45 45 45 45 45 44 44 44 44 44 44 43
38 38 38 38 38 38 38 39 39 39 39 40 41 42 43 45 47 47 48 49 50 50 50 49 49 49 48 48 47 47 46 45 43 42 40 38 36 33 32 31 32 34 35 36 37 37 37 37 37 37 39 40 40 40 40 39 37 37 36 36 36 35 34 34 35 36 37 38 39 40 42 43 44 45 46 46 46 46 45 44 44 45 45 44 43 42
38 37 38 38 37 37 38 39 39 40 40 41 42 42 42 44 46 47 48 48 50 50 50 50 49 49 48 47 47 47 46 45 45 44 42 39 36 33 31 31 32 34 35 36 36 37 37 38 39 40 41 41 40 39 38 37 36 36 36 37 37 36 35 35 36 37 38 40 41 41 42 43 45 46 46 46 46 45 45 44 45 44 44 42 42 41
39 38 39 39 37 38 39 39 39 40 42 42 42 42 42 43 45 48 48 49 50 50 50 50 50 50 49 48 47 46 46 45 45 43 40 37 35 34 33 33 33 34 34 35 35 36 37 38 39 40 39 38 37 37 36 35 35 34 34 35 36 37 37 37 37 38 39 40 41 42 43 43 44 45 45 45 44 44 44 44 44 43 42 41 41 42
38 38 39 39 39 39 39 39 39 40 42 43 43 42 42 43 45 47 49 50 50 50 50 50 50 49 48 47 46 46 46 46 45 42 38 35 33 33 34 34 35 35 35 35 36 36 36 36 36 36 36 36 36 35 35 35 35 34 34 34 35 37 38 38 38 38 38 39 40 40 41 41 42 43 42 42 42 42 42 42 41 40 40 41 42 43
38 38 39 40 40 40 39 39 39 40 41 43 43 42 42 43 43 45 47 48 49 49 49 49 48 47 46 46 46 46 46 45 43 41 38 36 34 34 35 35 35 35 35 35 34 34 34 33 33 33 33 34 34 35 35 34 32 31 31 31 30 31 32 33 33 34 35 36 36 37 38 39 40 40 40 40 41 40 40 39 39 40 41 42 43 44
36 38 39 39 40 41 40 40 40 40 41 40 41 42 42 42 43 43 44 45 46 46 47 47 46 46 45 45 44 43 43 42 41 39 37 37 37 37 36 35 34 34 34 33 33 32 31 30 30 30 30 31 32 33 32 30 27 25 25 25 23 23 24 26 29 31 32 33 34 35 36 38 38 39 39 39 38 38 38 38 39 41 42 44 44 45
35 37 39 39 39 41 41 40 41 41 40 39 39 40 40 41 41 42 42 42 43 43 43 44 45 45 43 41 40 39 39 39 38 37 36 37 37 37 36 35 34 33 33 33 33 32 30 29 30 30 30 30 30 30 29 29 27 27 28 27 26 25 26 27 28 30 31 32 33 34 35 36 37 37 37 36 36 37 38 39 40 42 43 44 44 44
34 37 38 39 40 41 41 42 42 40 39 38 39 39 39 40 41 42 42 42 42 42 42 42 43 44 42 40 37 36 35 35 35 35 35 36 37 36 36 35 34 34 35 35 35 33 32 31 31 30 30 29 29 29 29 28 28 28 29 28 28 27 27 27 28 29 30 31 32 33 34 35 35 35 35 35 36 37 38 39 40 41 42 42 42 41
35 37 38 38 38 39 40 41 41 40 38 38 38 38 39 41 42 42 42 42 42 42 42 42 43 44 43 40 37 35 33 33 33 35 36 36 37 36 35 35 35 35 35 34 33 31 30 30 29 28 29 28 28 28 28 28 27 27 27 27 27 27 27 27 28 29 30 31 32 32 33 33 33 34 34 35 35 36 38 39 40 40 39 39 39 39
34 38 38 37 36 36 37 39 40 40 40 39 38 39 40 41 41 41 42 42 42 41 41 41 42 43 43 42 40 37 36 35 35 35 35 35 35 35 35 35 35 35 34 32 30 28 27 27 27 26 26 26 27 27 27 27 27 27 27 27 27 27 27 27 28 29 29 30 31 31 32 32 33 33 33 34 35 36 37 37 37 36 36 36 36 37
32 37 38 37 36 35 34 36 38 38 37 37 37 37 38 39 40 40 40 40 39 39 40 40 40 42 42 43 43 42 40 39 37 37 37 36 35 35 36 36 36 35 33 30 28 27 28 28 27 27 26 26 26 26 26 27 27 27 27 27 27 27 27 28 28 29 29 29 30 31 31 31 31 32 32 33 34 34 34 34 33 34 34 35 36 37
30 37 39 40 39 36 34 34 35 35 34 34 34 34 34 34 37 39 39 37 35 37 38 37 36 37 38 41 43 44 43 41 39 38 38 38 38 38 38 37 35 34 33 31 30 29 29 29 28 28 27 26 26 25 25 25 26 26 26 27 27 27 27 28 28 29 29 30 30 30 30 30 30 31 32 32 32 31 31 31 32 33 34 35 36 38
28 35 39 41 41 39 37 35 34 33 33 32 32 32 31 32 34 35 34 33 35 35 34 33 32 32 34 36 39 42 43 44 42 41 40 40 41 39 37 35 34 33 33 32 29 28 28 28 27 28 27 27 26 25 24 24 24 25 26 26 26 27 27 28 28 29 29 29 28 28 28 29 29 30 30 29 28 28 29 31 32 33 34 35 36 37
25 31 36 39 40 39 37 35 34 32 30 29 30 32 31 31 31 28 26 27 30 30 28 28 29 30 32 35 38 41 43 45 46 45 43 43 41 38 36 34 33 33 32 30 27 26 27 27 28 28 27 26 25 24 24 24 25 25 25 26 26 27 27 27 27 27 27 27 27 27 27 28 28 27 26 26 26 28 29 30 32 33 34 35 36 36
22 26 31 35 36 36 35 32 30 27 26 26 27 29 30 30 29 26 23 24 25 26 28 30 30 31 32 34 36 39 41 42 44 44 43 41 39 37 36 34 32 30 29 28 26 26 27 28 28 27 26 26 25 24 24 24 24 24 25 26 26 27 27 26 26 26 25 26 26 26 26 26 25 24 24 25 26 27 29 30 31 32 33 34 35 35
21 22 25 28 30 31 30 28 24 22 22 24 25 27 29 31 31 29 27 27 27 28 31 32 32 32 31 30 30 32 34 36 37 37 36 36 35 34 32 30 29 28 28 27 27 27 27 27 27 26 26 25 24 24 24 24 24 24 25 26 26 26 25 25 25 25 24 24 24 24 24 23 22 23 24 25 26 27 28 29 30 31 32 33 33 34
21 20 22 24 25 26 25 24 23 22 22 24 25 26 29 32 34 33 31 31 30 28 29 31 33 31 28 26 26 27 29 30 30 30 30 29 29 29 28 27 28 27 26 26 26 25 25 25 26 25 25 25 24 23 23 24 25 26 26 26 26 25 24 24 23 23 23 23 23 22 21 21 22 23 24 25 25 26 27 28 29 30 30 31 32 33
18 18 19 21 21 21 20 20 20 22 23 25 26 26 27 30 33 33 33 33 30 27 26 28 31 32 28 26 26 27 28 27 26 26 26 25 25 25 25 26 25 23 23 24 24 22 23 24 25 25 25 25 24 24 25 25 26 26 25 25 24 24 23 22 22 22 22 21 21 20 20 20 22 23 23 24 25 26 26 27 28 29 29 30 31 31
18 18 19 20 20 21 21 20 20 21 22 24 26 26 26 28 30 31 33 32 30 27 25 25 29 32 31 28 28 29 28 27 26 26 25 24 24 24 24 23 21 20 22 23 23 23 24 25 26 26 25 25 25 25 26 26 25 25 24 24 23 22 21 21 21 21 20 19 19 19 19 21 21 22 23 24 25 25 25 26 27 27 28 29 30 30
21 21 21 22 22 22 22 21 22 23 22 23 24 25 26 26 27 28 30 30 28 27 25 24 26 30 31 30 30 30 29 28 28 27 25 24 22 22 21 19 18 20 23 25 25 26 26 27 27 26 26 26 26 26 26 25 24 23 23 23 21 20 20 20 20 19 18 18 18 19 20 21 21 22 22 23 24 24 25 25 25 26 27 28 28 29
20 20 20 20 20 20 20 20 23 24 23 23 24 24 25 25 25 26 27 28 27 26 25 25 26 28 30 31 30 29 28 28 28 26 25 23 22 21 21 19 17 19 23 23 23 24 25 25 25 25 25 26 26 25 24 23 23 22 21 20 20 19 19 19 18 18 18 18 19 19 20 21 21 22 22 23 24 24 24 24 25 25 26 26 27 28
19 19 19 19 19 19 20 22 24 25 24 24 24 25 25 25 25 25 26 27 27 25 24 24 24 26 28 29 28 27 27 26 26 25 24 23 22 22 22 21 21 22 23 22 20 21 22 22 23 23 24 24 24 23 22 22 21 20 19 19 19 19 18 17 17 17 18 19 19 20 21 21 22 22 23 23 23 23 23 23 24 25 25 26 26 28
22 22 21 20 19 20 22 23 24 24 24 25 25 25 24 25 25 26 26 27 27 25 23 22 22 23 25 26 26 27 27 26 25 25 25 24 23 22 22 22 23 24 25 24 23 22 22 21 21 22 22 22 22 22 21 20 19 18 18 18 18 18 17 16 17 18 19 20 20 21 21 22 22 23 23 23 22 22 22 22 24 25 25 25 26 27
Wind_Direction
216 217 217 217 216 214 216 220 220 218 217 218 217 218 218 217 215 216 220 223 221 216 213 216 220 225 227 232 240 240 237 239 244 252 250 237 233 235 231 229 233 237 235 231 227 229 234 238 240 239 237 240 242 247 252 253 252 250 248 246 242 241 243 244 245 248 251 254 258 260 261 263 264 267 271 277 285 293 299 301 302 302 301 300 299 296
216 217 217 216 215 214 215 218 219 218 218 217 217 217 217 216 215 216 221 222 219 210 206 211 217 221 224 229 237 238 235 237 242 247 242 230 228 227 224 222 223 222 220 217 214 218 229 236 238 238 237 239 241 244 247 246 245 242 241 241 241 245 250 252 252 252 255 258 260 262 263 265 265 267 269 273 278 284 291 294 296 297 296 297 296 295
216 217 216 214 214 213 213 216 219 219 219 219 217 217 217 215 213 216 221 222 217 210 205 208 214 219 222 226 233 236 232 232 236 238 230 222 216 211 218 222 218 217 219 217 214 215 229 239 240 240 242 243 244 246 247 246 245 242 241 241 243 248 252 253 252 253 257 259 261 263 264 265 266 267 268 269 273 277 283 286 289 291 291 291 291 291
217 216 215 214 213 213 212 214 217 218 219 219 217 217 217 214 212 215 220 220 217 213 209 210 214 219 222 225 231 233 231 228 230 233 227 220 213 211 222 226 214 212 217 214 211 213 232 244 243 242 243 246 248 247 248 249 248 246 245 244 245 248 250 251 252 255 258 260 261 263 264 265 266 267 267 268 270 274 277 281 283 284 286 286 287 289
218 217 215 214 213 213 213 212 214 217 219 220 218 216 216 213 210 212 218 219 217 214 212 212 217 219 222 226 229 232 232 229 229 232 231 227 224 222 222 214 201 200 205 203 203 212 236 247 246 245 244 245 247 246 247 249 249 248 246 246 248 249 250 250 252 256 260 263 265 265 266 267 268 269 270 270 271 272 274 277 278 280 282 284 285 287
217 217 214 214 213 213 214 213 212 215 218 220 219 217 215 212 209 210 215 218 218 217 214 215 220 221 223 227 229 232 234 232 229 232 235 234 234 229 217 202 193 193 194 197 200 213 230 242 247 247 246 245 246 245 244 246 247 247 246 247 250 252 253 254 258 263 266 268 269 270 271 271 272 272 272 272 272 273 274 276 277 278 280 282 285 287
217 217 214 213 213 213 215 214 212 213 216 219 219 217 216 212 209 208 212 216 218 218 216 217 222 223 225 228 230 233 235 235 227 225 232 232 231 228 216 205 192 186 193 201 204 217 228 239 249 253 252 248 246 246 245 246 247 248 248 250 253 257 261 265 268 269 269 269 270 271 273 273 274 274 274 274 273 274 275 276 276 277 279 281 283 285
217 216 213 212 213 213 214 214 213 213 215 217 217 217 215 212 211 210 212 215 217 218 218 220 223 225 226 229 232 233 234 236 228 223 227 227 230 227 214 208 192 180 201 211 206 218 231 240 251 259 260 252 247 249 249 247 248 251 252 254 258 263 268 271 272 271 269 269 271 273 275 276 277 277 277 276 275 275 275 275 275 276 278 280 281 283
217 217 214 213 213 213 214 214 213 213 215 216 215 214 213 211 211 211 213 216 217 218 219 222 225 227 228 229 233 234 233 235 230 226 227 229 236 229 220 229 216 190 211 218 204 213 231 240 246 252 257 251 246 246 249 251 250 252 254 256 261 267 271 272 270 270 270 271 273 276 279 279 279 279 279 278 278 278 277 277 276 276 278 278 280 282
216 217 216 214 214 214 214 214 213 213 215 215 213 211 211 210 210 211 213 214 216 218 220 222 226 229 231 230 233 235 236 237 235 231 230 234 238 230 229 237 223 208 233 230 215 214 223 232 235 238 246 249 248 244 245 253 255 257 258 259 262 266 270 269 268 268 269 272 276 279 279 280 280 280 280 281 281 282 281 281 279 279 278 278 279 280
216 217 216 215 215 215 215 214 214 214 214 213 210 209 208 208 209 211 213 212 214 218 219 221 225 229 231 231 233 236 238 241 239 232 230 235 236 231 231 233 226 240 254 236 229 224 219 225 229 231 237 245 250 248 244 249 255 260 261 261 263 266 269 269 269 270 272 276 278 279 279 280 280 281 281 282 283 284 284 284 283 281 279 279 279 280
214 216 216 214 214 215 214 213 213 214 214 210 207 208 206 206 208 210 211 210 214 218 217 219 224 229 232 232 233 235 235 237 238 232 226 230 234 231 235 239 237 244 240 230 233 230 223 225 230 233 238 244 251 253 250 248 251 257 260 263 266 267 269 271 272 274 275 278 278 279 280 280 281 282 282 283 284 284 285 285 284 283 282 281 281 281
211 213 215 214 213 214 213 213 212 212 212 208 205 205 204 205 207 209 210 211 214 217 215 216 222 228 233 232 232 234 233 231 234 233 228 227 231 230 235 240 236 237 240 237 237 234 228 229 235 243 248 252 256 256 256 254 253 257 259 261 265 267 269 271 274 276 277 278 279 279 280 280 281 282 283 284 284 285 286 285 285 284 283 283 282 283
207 209 212 212 212 212 212 212 213 213 211 207 205 206 206 206 209 211 212 213 215 216 214 215 221 228 232 233 232 233 233 230 230 231 230 226 225 225 227 231 233 239 243 236 230 233 232 232 241 254 261 263 261 260 260 259 258 259 260 262 265 267 270 273 275 276 277 278 278 278 279 280 281 282 283 284 284 285 285 286 286 286 285 285 284 283
208 208 208 210 210 211 211 211 212 213 212 207 205 207 208 211 214 214 214 214 215 215 214 214 220 228 232 232 232 232 232 232 230 229 229 224 222 223 225 229 233 236 235 227 225 236 243 247 254 265 275 274 266 262 261 261 261 261 261 263 265 268 272 274 275 276 277 277 277 278 279 279 280 281 282 283 284 284 285 286 287 287 288 287 286 285
210 210 210 210 210 210 210 209 209 209 207 205 204 206 208 210 212 212 214 216 217 217 214 214 221 229 232 233 233 232 231 232 231 229 230 227 226 228 230 232 231 228 227 229 237 251 260 265 268 274 284 283 271 263 261 262 264 264 262 261 263 267 272 273 274 275 276 276 277 278 279 280 281 282 283 284 284 285 286 286 287 288 289 289 289 289
208 210 210 211 211 210 211 210 209 208 206 203 203 207 208 207 206 209 212 215 216 217 216 217 223 229 232 234 234 233 232 232 231 230 231 231 231 231 231 232 231 229 233 239 251 266 272 275 277 277 281 281 274 266 262 262 265 266 264 262 264 269 271 272 272 273 274 275 276 277 278 279 281 283 284 285 285 286 287 288 288 288 289 290 291 292
208 210 210 210 210 209 210 210 209 209 208 205 204 206 206 204 205 208 211 213 216 219 219 219 224 229 232 233 234 233 232 233 232 232 234 234 234 233 231 230 232 237 242 245 254 269 276 280 281 278 278 277 274 270 266 264 264 264 264 265 268 270 270 269 269 269 271 272 274 275 276 278 280 282 283 283 285 286 288 289 289 289 289 290 291 292
207 209 210 211 211 208 209 209 208 208 208 207 206 207 206 204 207 209 210 214 217 220 222 222 224 228 231 233 233 232 233 235 235 237 239 241 242 239 235 234 236 239 242 245 254 267 275 280 280 279 280 278 275 273 271 267 265 265 265 266 267 267 266 266 266 267 268 270 271 272 275 277 279 280 282 283 285 287 288 289 290 290 290 290 290 290
206 206 207 209 210 208 208 209 208 208 207 204 205 206 206 207 210 212 214 217 219 222 225 226 226 228 230 232 233 234 233 234 236 239 243 245 244 240 237 239 241 243 245 248 256 266 274 277 277 279 282 282 279 275 271 267 266 267 267 267 266 264 262 262 262 263 265 266 269 271 274 276 278 279 281 283 285 287 288 289 290 291 291 291 290 290
205 204 203 205 207 207 209 209 208 210 210 207 206 205 205 206 209 211 215 219 221 224 227 228 229 229 228 230 233 235 235 234 236 239 241 241 239 238 239 242 244 246 248 252 259 267 272 274 276 277 280 282 281 276 271 268 266 268 269 270 272 268 262 260 260 261 262 265 267 270 272 274 276 279 281 283 285 287 289 291 292 292 292 292 291 291
203 203 202 203 205 207 209 209 207 209 212 213 211 208 206 207 207 209 213 216 219 223 226 229 231 230 228 229 232 235 237 238 238 239 239 238 236 237 241 244 246 248 250 254 262 268 271 273 275 275 276 277 278 277 276 273 270 270 270 272 274 272 265 262 262 263 264 266 267 268 270 273 276 279 282 284 286 288 290 293 294 294 294 293 292 292
202 202 202 203 205 206 208 208 206 207 211 213 213 211 209 209 210 211 215 217 218 221 224 227 230 231 230 230 232 235 238 239 240 240 239 239 237 239 242 244 247 249 253 258 264 268 270 272 273 273 273 273 275 278 279 277 274 272 272 272 272 272 269 266 266 266 267 267 267 267 268 272 276 279 282 285 287 289 292 294 295 295 294 294 293 292
202 200 202 203 204 204 205 206 204 206 208 210 212 212 211 212 212 213 217 219 220 222 224 227 229 231 231 231 233 236 238 239 240 241 242 242 242 244 245 246 248 251 255 260 265 268 270 271 271 272 272 272 273 275 278 279 277 275 276 276 275 274 272 271 270 269 268 266 265 265 267 271 276 279 282 285 287 290 293 295 296 295 295 294 293 293
204 201 202 204 204 203 202 202 202 203 207 209 210 211 211 211 212 213 215 218 220 222 225 227 230 231 233 234 235 236 238 240 242 244 245 246 246 247 248 249 250 252 256 261 264 267 270 269 269 270 272 272 272 273 276 279 280 279 278 279 279 277 274 272 271 269 267 265 264 265 268 271 275 278 281 283 286 290 293 295 296 296 295 295 294 294
207 204 205 207 207 205 204 203 202 203 206 207 207 209 210 210 211 212 214 217 218 220 223 226 229 231 232 234 236 238 240 242 245 247 247 248 249 250 250 251 253 255 258 261 264 267 268 267 267 269 271 272 272 273 275 279 282 282 280 278 278 276 272 270 270 268 266 265 265 266 268 271 274 277 279 282 286 290 293 295 296 296 296 296 296 295
208 205 206 210 210 208 207 206 205 205 207 208 207 208 209 209 210 212 215 217 219 220 222 225 227 230 232 234 236 239 241 243 246 247 248 248 250 251 252 253 255 257 259 261 264 265 266 265 266 269 271 273 275 277 280 283 283 281 280 278 275 271 268 267 268 267 266 265 265 266 268 271 273 276 279 283 287 291 294 295 296 296 296 296 296 296
207 204 204 208 211 210 208 207 206 206 208 209 209 210 210 210 211 213 215 218 220 222 224 226 227 230 232 235 237 240 242 244 247 248 249 250 251 253 254 255 256 257 258 260 263 264 265 266 267 270 273 276 278 281 284 284 282 280 278 277 273 268 265 266 267 267 265 265 265 266 268 270 273 276 280 284 289 293 294 295 296 296 296 297 297 296
206 204 203 206 209 210 209 208 206 205 206 208 209 210 211 212 213 214 217 218 220 222 225 227 229 230 233 236 238 241 243 245 247 250 251 252 253 254 254 254 254 256 258 260 262 264 265 266 268 271 275 277 280 283 283 282 280 278 275 272 270 267 265 265 266 266 265 265 265 267 269 271 274 278 281 286 290 292 294 295 296 296 297 297 297 298
203 202 202 204 206 208 208 207 206 204 205 207 209 209 211 213 214 215 217 219 221 223 224 227 229 231 232 235 238 241 243 246 248 250 252 253 253 253 253 253 254 256 258 260 261 262 264 266 269 272 275 278 281 281 280 278 277 276 272 268 267 266 265 265 265 265 265 264 265 267 270 273 276 280 284 287 290 292 293 295 296 297 297 298 298 299
201 200 200 201 203 206 208 207 206 204 204 206 208 209 210 213 214 215 217 219 221 223 224 226 228 230 232 235 237 240 242 245 248 250 252 253 254 254 254 255 255 256 258 260 261 264 266 269 271 273 276 278 278 276 275 275 275 275 273 268 265 264 264 264 264 264 264 265 267 269 272 276 279 283 286 289 290 292 294 295 296 297 297 298 299 300
201 199 199 200 200 204 207 207 206 205 204 206 208 208 209 211 214 215 217 219 221 223 225 227 228 230 233 236 238 240 242 245 247 250 253 254 255 255 256 256 257 259 261 263 266 268 270 272 273 275 276 275 273 271 272 274 275 276 276 273 268 263 260 261 262 264 266 268 270 273 277 280 283 286 288 289 291 292 294 295 296 297 298 300 301 302
203 199 199 199 200 202 205 207 206 206 206 206 208 209 209 210 213 215 216 219 221 223 225 227 229 231 234 237 240 242 243 246 249 251 253 254 255 256 257 259 260 262 265 267 270 272 274 275 275 275 273 271 270 270 271 272 274 275 274 270 263 258 257 260 264 267 270 273 275 278 281 284 286 287 289 290 291 293 294 296 298 299 301 303 304 304
206 201 199 200 201 203 205 205 206 208 208 209 210 211 210 211 213 214 216 218 220 222 224 226 228 230 233 237 240 243 245 247 250 251 251 252 253 255 257 260 263 266 269 270 272 274 275 275 275 274 273 272 272 271 270 269 268 269 270 266 262 262 266 269 271 273 275 277 279 282 284 286 287 288 289 291 292 295 297 299 301 303 304 305 306 306
210 204 201 201 202 205 207 206 208 211 211 212 213 213 213 214 215 216 217 219 220 221 222 224 226 228 231 235 239 242 244 246 247 248 249 250 252 255 258 261 264 267 269 272 273 274 273 274 275 274 274 273 272 269 269 269 269 270 274 277 278 279 279 277 276 276 278 280 282 284 286 287 288 289 291 294 297 299 301 303 304 305 306 306 306 307
210 207 205 203 203 207 208 208 210 213 215 215 215 216 217 217 218 219 220 221 222 222 222 223 224 226 228 232 237 241 242 244 245 246 247 250 252 255 258 262 265 268 270 273 275 273 272 273 274 274 272 272 271 269 269 271 272 274 277 280 282 282 281 280 279 280 281 283 285 286 287 288 290 293 296 299 301 302 303 304 305 305 306 306 307 308
208 207 207 206 206 210 212 211 212 214 215 216 218 219 220 221 222 222 222 223 224 224 224 225 226 228 229 231 235 239 241 242 244 246 248 250 254 258 262 265 268 270 271 273 274 271 269 270 272 271 270 268 267 268 270 272 275 278 279 281 282 282 282 281 282 283 284 285 286 288 290 292 295 298 300 301 303 303 304 305 305 306 307 309 310 312
209 207 208 208 208 212 215 217 217 217 215 217 221 223 223 224 226 226 226 226 227 228 229 230 232 234 234 233 234 237 239 242 245 248 250 254 257 261 265 267 269 270 270 270 269 267 267 271 271 269 269 267 266 267 269 272 275 277 280 281 282 282 282 282 283 284 285 287 289 292 294 296 298 299 301 302 303 304 305 305 306 308 310 312 313 313
211 208 208 209 211 214 216 219 222 222 220 221 226 228 228 227 228 229 230 229 229 231 234 236 239 241 241 239 237 238 241 244 248 251 255 258 261 263 266 268 269 268 266 266 267 266 269 272 270 269 270 270 268 267 268 270 272 274 276 278 279 280 281 282 284 286 288 291 293 295 295 297 298 300 302 303 304 305 305 307 309 311 313 313 313 313
213 209 208 210 212 216 218 220 223 225 224 224 228 230 231 231 230 231 231 229 229 233 237 240 243 244 244 243 241 241 242 245 249 254 257 258 261 264 266 268 267 264 262 265 267 267 267 269 269 270 271 271 269 267 267 268 270 271 273 274 276 279 281 284 287 290 292 293 293 294 296 298 300 302 303 304 304 306 307 310 312 313 313 313 314 314
216 213 211 212 214 217 221 223 225 227 227 226 227 229 231 233 232 232 233 230 228 232 235 238 240 241 242 244 244 244 244 246 248 252 255 258 261 264 267 267 265 263 263 267 269 267 266 267 270 271 270 268 266 264 265 266 268 269 272 275 278 282 284 287 289 290 290 291 293 295 298 300 302 303 303 304 306 308 311 312 313 313 314 315 316 318
223 218 215 215 217 220 224 228 232 233 232 231 232 231 231 232 232 232 232 230 226 226 230 234 237 240 242 243 244 245 245 246 248 251 255 258 261 263 264 265 264 264 266 268 268 266 265 267 270 270 266 262 261 261 263 266 268 271 275 278 281 284 286 287 287 288 289 292 295 298 300 301 301 302 303 305 309 311 313 313 313 315 316 318 320 322
227 225 222 221 221 223 227 231 236 240 241 240 239 237 235 235 235 234 235 234 231 230 234 239 242 244 245 245 246 247 248 249 251 253 255 258 259 259 260 262 263 264 265 266 265 263 263 265 266 264 260 257 258 261 264 267 271 275 278 281 283 284 285 285 286 289 292 295 298 299 300 300 300 301 305 308 311 312 313 314 316 318 320 322 324 326
226 225 225 224 224 227 232 238 244 249 250 248 244 241 238 237 237 237 237 237 236 236 239 243 244 243 243 243 245 246 247 247 249 251 253 254 254 255 256 257 259 262 264 265 264 261 259 260 258 255 254 255 258 262 266 270 274 277 279 281 283 284 284 286 288 292 295 297 298 298 297 297 300 304 307 310 312 313 315 317 319 321 323 325 327 328
227 225 227 229 229 231 236 242 246 247 245 244 241 238 236 235 235 235 236 236 237 240 244 244 239 234 234 235 237 238 239 240 243 245 248 250 251 252 252 253 257 261 259 255 252 250 249 250 250 250 251 256 260 264 268 271 274 277 280 281 282 283 285 288 291 294 295 296 295 294 295 298 303 306 309 311 313 315 317 319 321 323 325 328 329 330
226 225 229 233 236 238 237 238 238 236 236 238 238 235 232 232 232 232 233 234 237 241 247 246 236 228 227 228 231 234 236 237 241 244 247 250 250 249 251 255 259 260 251 240 237 240 244 246 248 249 253 257 260 263 267 271 275 278 279 280 281 284 287 290 292 293 293 292 291 292 296 302 306 308 310 312 313 315 318 320 322 324 327 329 330 331
230 230 233 237 242 245 245 241 237 235 234 236 237 234 230 228 227 227 228 230 233 239 246 246 236 228 226 229 232 235 237 239 241 244 246 247 247 247 249 250 247 244 238 235 239 245 247 247 248 250 254 257 259 263 268 273 275 277 278 280 283 286 289 291 291 289 288 287 289 294 300 304 306 308 310 312 314 316 318 320 323 325 328 330 330 332
234 236 238 242 245 248 248 242 234 230 229 231 232 232 229 227 225 223 223 226 230 236 241 242 234 228 229 232 235 237 239 239 240 241 242 242 240 240 238 233 228 230 235 238 240 242 241 242 244 248 252 256 260 265 270 272 274 276 278 281 284 286 288 288 286 283 283 286 292 298 301 303 306 308 309 311 313 315 317 320 323 326 328 330 331 332
231 232 237 243 246 247 245 236 227 223 222 224 226 226 225 225 224 221 221 223 227 232 236 236 232 230 232 235 237 237 237 237 237 237 235 232 230 228 225 222 223 230 236 238 237 236 237 239 242 247 253 258 262 266 268 270 273 276 279 281 283 285 284 282 280 280 285 290 295 298 301 303 305 307 309 310 311 313 316 319 322 325 327 329 331 333
227 230 237 242 240 236 230 222 217 216 217 218 220 221 221 221 221 220 218 218 220 224 228 230 230 230 231 234 235 233 232 232 231 230 228 225 224 225 224 223 226 230 236 243 246 245 245 246 248 251 256 259 261 264 267 271 274 276 277 279 281 280 277 276 278 283 288 293 296 299 301 304 306 307 308 308 309 311 314 317 320 323 326 329 332 335
227 231 238 240 236 231 225 220 218 218 217 216 216 218 218 219 219 217 214 213 215 218 222 227 230 229 229 230 232 231 229 227 224 224 224 223 224 227 231 232 234 236 242 249 253 254 254 254 255 256 257 259 262 265 268 271 272 274 275 276 274 272 272 275 280 286 291 294 298 300 303 304 306 306 306 306 307 308 311 316 319 321 325 329 333 335
Height
5709 5713 5718 5723 5729 5733 5737 5740 5744 5748 5751 5753 5756 5758 5760 5762 5764 5765 5767 5769 5773 5776 5779 5780 5782 5783 5783 5784 5785 5786 5790 5792 5793 5794 5796 5798 5801 5803 5803 5802 5803 5805 5807 5809 5810 5811 5812 5813 5814 5815 5816 5818 5819 5821 5822 5823 5824 5825 5827 5828 5829 5829 5830 5830 5831 5832 5832 5832 5832 5833 5833 5833 5833 5833 5832 5832 5832 5832 5831 5830 5829 5828 5827 5827 5827 5826
5706 5709 5715 5722 5727 5731 5734 5737 5741 5745 5748 5750 5753 5755 5757 5760 5762 5763 5765 5767 5771 5774 5776 5778 5779 5780 5781 5783 5782 5784 5788 5791 5792 5793 5794 5795 5798 5800 5799 5798 5801 5804 5805 5807 5808 5809 5811 5811 5812 5813 5814 5816 5817 5819 5820 5821 5822 5823 5825 5826 5827 5827 5828 5828 5829 5830 5830 5830 5831 5831 5831 5831 5831 5831 5831 5831 5830 5830 5830 5829 5828 5827 5826 5825 5825 5825
5701 5705 5712 5718 5723 5727 5730 5734 5738 5742 5745 5747 5751 5753 5755 5758 5761 5762 5763 5766 5769 5772 5774 5775 5777 5777 5778 5780 5780 5781 5785 5788 5789 5790 5791 5792 5794 5798 5797 5796 5798 5801 5803 5805 5807 5808 5809 5809 5810 5811 5813 5814 5815 5817 5818 5819 5820 5821 5822 5824 5825 5825 5826 5826 5827 5828 5828 5829 5829 5829 5829 5829 5829 5829 5829 5829 5828 5828 5828 5827 5826 5825 5825 5824 5824 5823
5697 5702 5709 5715 5720 5724 5727 5730 5734 5738 5741 5744 5748 5751 5753 5757 5759 5760 5761 5764 5767 5769 5771 5773 5774 5774 5775 5777 5777 5779 5782 5784 5786 5788 5790 5792 5792 5793 5793 5793 5795 5798 5801 5803 5805 5806 5807 5807 5808 5809 5811 5812 5813 5815 5816 5817 5818 5819 5820 5821 5822 5823 5824 5824 5825 5825 5826 5827 5827 5827 5827 5827 5827 5827 5827 5827 5826 5826 5826 5825 5824 5824 5823 5823 5822 5822
5695 5700 5707 5712 5717 5721 5724 5727 5731 5735 5738 5741 5745 5748 5751 5755 5757 5759 5760 5762 5764 5766 5768 5770 5771 5771 5772 5774 5775 5776 5779 5781 5784 5787 5790 5792 5792 5792 5793 5792 5792 5795 5799 5801 5803 5804 5805 5806 5806 5808 5809 5810 5811 5813 5814 5815 5816 5816 5817 5819 5820 5821 5822 5822 5823 5823 5824 5824 5824 5825 5824 5824 5824 5824 5824 5824 5824 5824 5823 5823 5823 5822 5822 5821 5821 5820
5691 5697 5704 5709 5714 5718 5721 5724 5728 5732 5735 5739 5742 5746 5749 5753 5755 5757 5758 5759 5761 5763 5766 5768 5768 5768 5770 5771 5773 5774 5776 5779 5784 5788 5789 5790 5792 5794 5797 5794 5791 5794 5798 5799 5801 5802 5802 5804 5805 5806 5807 5808 5809 5810 5812 5813 5814 5815 5815 5816 5818 5819 5820 5821 5821 5822 5822 5822 5822 5822 5822 5822 5822 5822 5822 5822 5822 5822 5821 5821 5821 5820 5820 5819 5818 5818
5687 5693 5700 5705 5710 5714 5717 5721 5725 5729 5732 5736 5740 5744 5747 5751 5753 5754 5755 5756 5758 5761 5763 5765 5764 5766 5768 5769 5771 5773 5774 5777 5782 5786 5786 5786 5788 5792 5796 5795 5792 5795 5798 5798 5799 5800 5801 5802 5803 5804 5805 5806 5807 5808 5810 5811 5812 5813 5814 5815 5816 5817 5818 5819 5819 5820 5820 5820 5820 5820 5820 5820 5820 5819 5820 5820 5820 5819 5819 5819 5818 5818 5817 5817 5816 5815
5683 5689 5696 5702 5706 5710 5713 5718 5723 5726 5729 5732 5737 5742 5745 5748 5751 5752 5753 5754 5756 5759 5761 5761 5762 5764 5766 5767 5768 5771 5773 5775 5779 5782 5783 5784 5787 5790 5794 5794 5793 5795 5797 5797 5797 5798 5799 5800 5801 5802 5803 5804 5805 5807 5808 5809 5810 5811 5812 5813 5814 5815 5816 5816 5817 5818 5818 5818 5818 5818 5818 5818 5818 5817 5817 5817 5817 5817 5817 5816 5816 5815 5815 5814 5814 5813
5680 5686 5693 5699 5703 5706 5711 5716 5720 5723 5726 5730 5735 5739 5742 5745 5748 5749 5751 5752 5755 5756 5757 5758 5760 5761 5763 5765 5766 5769 5771 5772 5776 5780 5782 5785 5787 5790 5792 5792 5792 5794 5796 5796 5796 5796 5797 5798 5799 5800 5801 5802 5804 5805 5806 5807 5808 5809 5810 5811 5812 5813 5814 5814 5815 5815 5815 5815 5816 5816 5816 5816 5816 5815 5815 5815 5815 5814 5814 5814 5813 5812 5812 5811 5811 5810
5679 5684 5691 5696 5700 5704 5709 5713 5717 5720 5724 5729 5733 5736 5739 5742 5744 5746 5748 5750 5752 5753 5754 5756 5758 5759 5760 5763 5765 5766 5769 5771 5775 5780 5783 5784 5785 5786 5788 5789 5790 5793 5794 5794 5794 5794 5795 5796 5797 5798 5799 5800 5801 5803 5804 5805 5806 5807 5808 5809 5810 5811 5812 5812 5812 5812 5812 5813 5813 5814 5814 5813 5813 5813 5813 5813 5812 5812 5811 5811 5810 5810 5809 5808 5808 5808
5677 5682 5687 5693 5698 5702 5706 5710 5714 5717 5721 5726 5730 5733 5736 5738 5741 5743 5745 5747 5748 5749 5752 5754 5755 5756 5757 5760 5763 5765 5768 5771 5775 5779 5781 5782 5783 5784 5785 5787 5789 5791 5792 5792 5792 5792 5793 5794 5795 5796 5797 5798 5799 5800 5802 5803 5804 5804 5805 5806 5807 5809 5809 5810 5810 5810 5810 5811 5811 5811 5811 5811 5811 5811 5811 5811 5810 5809 5809 5808 5807 5807 5806 5805 5805 5805
5673 5678 5683 5689 5694 5697 5701 5706 5710 5713 5718 5723 5727 5729 5732 5735 5738 5740 5741 5744 5745 5746 5750 5752 5753 5753 5754 5757 5761 5764 5768 5770 5772 5775 5778 5779 5781 5783 5785 5787 5788 5789 5790 5789 5789 5789 5790 5792 5793 5795 5796 5797 5797 5798 5799 5801 5802 5802 5803 5804 5805 5806 5807 5807 5808 5808 5808 5808 5809 5809 5809 5809 5809 5809 5808 5808 5807 5807 5806 5806 5805 5804 5803 5803 5802 5802
5669 5674 5679 5684 5689 5692 5697 5701 5705 5708 5713 5718 5722 5725 5728 5731 5733 5735 5737 5740 5742 5744 5747 5749 5750 5751 5751 5755 5759 5761 5766 5769 5770 5772 5774 5776 5779 5782 5784 5785 5785 5785 5786 5787 5787 5788 5789 5791 5792 5794 5795 5796 5796 5796 5797 5799 5800 5800 5801 5802 5803 5804 5804 5805 5805 5806 5806 5806 5807 5806 5806 5806 5806 5806 5805 5805 5805 5804 5804 5803 5802 5801 5801 5800 5800 5799
5664 5669 5674 5679 5683 5688 5692 5696 5700 5704 5708 5714 5718 5721 5724 5726 5728 5730 5733 5736 5739 5741 5744 5747 5748 5747 5748 5752 5756 5759 5763 5766 5769 5770 5772 5775 5778 5780 5782 5782 5782 5782 5784 5786 5787 5787 5788 5790 5791 5792 5793 5794 5795 5795 5796 5797 5798 5799 5799 5800 5801 5801 5802 5802 5803 5804 5804 5804 5804 5804 5803 5803 5803 5802 5802 5802 5802 5801 5801 5800 5799 5798 5798 5797 5796 5796
5662 5665 5669 5674 5678 5683 5688 5693 5698 5703 5708 5713 5716 5719 5721 5724 5725 5727 5730 5732 5735 5738 5742 5745 5745 5743 5744 5748 5753 5757 5760 5763 5766 5768 5771 5773 5775 5776 5777 5778 5779 5780 5782 5784 5785 5786 5787 5788 5789 5790 5791 5792 5792 5793 5794 5795 5796 5797 5797 5798 5798 5799 5800 5800 5801 5801 5802 5802 5801 5801 5800 5800 5800 5799 5799 5799 5799 5798 5798 5797 5796 5795 5794 5794 5793 5792
5661 5665 5669 5672 5677 5682 5686 5691 5695 5700 5705 5710 5713 5715 5718 5721 5723 5725 5728 5731 5734 5736 5740 5742 5741 5740 5742 5746 5751 5755 5758 5761 5764 5766 5768 5770 5773 5774 5775 5776 5778 5780 5782 5782 5783 5784 5785 5786 5787 5788 5789 5790 5790 5790 5791 5793 5794 5795 5796 5796 5797 5797 5798 5798 5798 5799 5799 5798 5798 5798 5797 5797 5797 5796 5796 5795 5795 5795 5794 5793 5792 5792 5791 5790 5789 5788
5658 5662 5666 5671 5675 5681 5685 5689 5693 5697 5700 5704 5708 5711 5714 5717 5720 5723 5727 5729 5731 5733 5737 5739 5738 5738 5741 5745 5749 5752 5755 5758 5761 5764 5766 5768 5770 5772 5772 5775 5777 5779 5780 5781 5781 5782 5783 5784 5785 5786 5787 5787 5787 5788 5789 5790 5791 5793 5793 5794 5795 5795 5795 5795 5795 5796 5796 5795 5795 5795 5794 5794 5794 5793 5793 5792 5791 5791 5790 5790 5789 5788 5788 5787 5786 5785
5656 5660 5664 5668 5673 5679 5683 5688 5692 5696 5699 5702 5705 5707 5710 5714 5718 5722 5724 5725 5728 5730 5733 5736 5736 5737 5740 5743 5746 5749 5752 5755 5759 5762 5764 5765 5768 5769 5770 5773 5775 5776 5778 5778 5779 5780 5780 5781 5782 5783 5784 5784 5784 5785 5786 5788 5789 5790 5791 5791 5792 5792 5792 5792 5792 5792 5792 5792 5792 5792 5792 5791 5791 5790 5789 5789 5788 5788 5787 5786 5786 5785 5785 5784 5783 5782
5655 5659 5663 5667 5671 5677 5681 5684 5688 5691 5695 5700 5703 5705 5709 5712 5716 5718 5719 5721 5724 5726 5729 5732 5733 5735 5738 5740 5743 5747 5751 5754 5757 5759 5762 5764 5766 5767 5769 5771 5772 5773 5775 5776 5777 5778 5779 5779 5780 5781 5781 5782 5782 5783 5784 5785 5786 5787 5788 5788 5788 5788 5789 5789 5789 5789 5789 5789 5789 5789 5788 5788 5788 5787 5786 5785 5785 5784 5784 5783 5783 5782 5781 5780 5779 5779
5652 5656 5660 5665 5670 5674 5677 5680 5683 5686 5690 5694 5698 5702 5707 5711 5714 5716 5718 5720 5722 5724 5726 5729 5730 5733 5736 5739 5742 5745 5749 5752 5755 5757 5760 5762 5764 5765 5766 5768 5769 5770 5772 5773 5774 5775 5776 5777 5778 5779 5779 5779 5780 5781 5782 5783 5784 5784 5784 5784 5784 5785 5785 5785 5785 5786 5786 5786 5785 5785 5785 5785 5784 5783 5782 5782 5781 5781 5780 5780 5779 5779 5778 5777 5776 5775
5649 5653 5658 5662 5666 5670 5672 5675 5680 5684 5688 5691 5693 5697 5702 5705 5709 5713 5716 5718 5720 5722 5724 5726 5728 5731 5735 5738 5740 5744 5747 5750 5752 5755 5757 5759 5761 5763 5764 5765 5766 5768 5769 5770 5771 5773 5774 5775 5776 5777 5777 5777 5778 5779 5780 5781 5781 5781 5780 5780 5781 5781 5781 5781 5782 5782 5782 5782 5782 5782 5782 5781 5780 5779 5779 5778 5778 5777 5777 5776 5776 5775 5774 5773 5772 5770
5647 5652 5656 5660 5663 5666 5669 5674 5680 5684 5688 5691 5694 5696 5699 5702 5705 5709 5710 5713 5717 5719 5721 5723 5726 5730 5733 5736 5739 5741 5744 5747 5750 5752 5754 5756 5758 5760 5761 5762 5763 5765 5766 5767 5768 5770 5771 5773 5774 5774 5775 5775 5776 5777 5777 5778 5778 5777 5777 5777 5777 5777 5777 5777 5778 5778 5778 5778 5779 5779 5778 5778 5777 5776 5775 5774 5774 5773 5773 5772 5772 5771 5770 5769 5767 5766
5645 5650 5655 5658 5661 5664 5668 5673 5679 5683 5686 5690 5693 5697 5699 5701 5704 5706 5708 5710 5714 5716 5718 5721 5724 5727 5731 5734 5737 5739 5741 5744 5747 5749 5752 5754 5755 5757 5758 5759 5760 5762 5763 5764 5766 5768 5769 5771 5771 5772 5772 5773 5773 5773 5774 5774 5774 5774 5774 5774 5774 5774 5774 5774 5774 5774 5774 5775 5775 5775 5774 5774 5773 5772 5771 5771 5770 5769 5769 5768 5767 5766 5765 5764 5763 5761
5644 5649 5652 5655 5658 5662 5667 5672 5676 5679 5682 5685 5689 5692 5696 5699 5702 5706 5708 5711 5713 5715 5717 5720 5722 5724 5728 5732 5734 5736 5738 5740 5743 5746 5748 5750 5752 5754 5755 5756 5758 5759 5761 5762 5764 5766 5767 5768 5768 5768 5769 5770 5770 5771 5771 5771 5771 5771 5771 5771 5771 5771 5771 5771 5771 5771 5771 5771 5771 5771 5771 5770 5769 5768 5767 5767 5766 5765 5765 5764 5763 5762 5761 5759 5758 5756
5643 5647 5650 5653 5656 5659 5663 5666 5670 5673 5676 5680 5684 5689 5693 5696 5700 5703 5705 5708 5710 5713 5716 5718 5719 5722 5726 5729 5731 5733 5735 5738 5740 5743 5745 5747 5749 5751 5752 5754 5755 5757 5759 5760 5762 5763 5764 5765 5765 5765 5765 5766 5767 5767 5768 5768 5768 5768 5768 5767 5767 5768 5767 5767 5767 5767 5767 5767 5767 5767 5767 5766 5765 5764 5764 5763 5762 5761 5761 5760 5759 5757 5756 5754 5753 5751
5642 5646 5649 5651 5654 5657 5659 5662 5666 5670 5672 5677 5681 5685 5689 5693 5695 5699 5701 5703 5705 5709 5712 5714 5716 5719 5723 5726 5728 5730 5733 5735 5738 5740 5742 5744 5745 5747 5749 5751 5753 5755 5756 5758 5759 5760 5761 5761 5761 5761 5762 5762 5763 5764 5764 5765 5764 5764 5764 5764 5764 5764 5764 5763 5763 5763 5764 5764 5763 5763 5763 5762 5761 5760 5760 5759 5758 5758 5757 5756 5755 5753 5751 5750 5748 5746
5640 5645 5648 5650 5653 5656 5660 5663 5667 5670 5672 5675 5679 5682 5686 5690 5693 5696 5697 5699 5703 5707 5709 5711 5713 5717 5720 5723 5725 5728 5730 5732 5735 5737 5739 5741 5742 5744 5746 5748 5750 5752 5753 5754 5755 5756 5757 5757 5757 5757 5758 5759 5759 5760 5760 5760 5760 5760 5759 5759 5760 5759 5759 5759 5759 5759 5759 5759 5759 5759 5758 5757 5757 5756 5755 5755 5754 5753 5752 5751 5750 5748 5747 5745 5743 5741
5637 5641 5645 5648 5651 5655 5659 5662 5665 5668 5671 5674 5678 5681 5684 5687 5690 5692 5694 5697 5702 5704 5706 5709 5712 5714 5718 5720 5723 5725 5727 5729 5731 5733 5735 5737 5739 5741 5743 5745 5747 5748 5749 5750 5751 5752 5753 5753 5753 5754 5755 5755 5755 5756 5756 5756 5756 5755 5755 5755 5755 5755 5755 5755 5755 5755 5755 5755 5755 5754 5754 5753 5753 5752 5752 5751 5750 5749 5748 5747 5745 5744 5742 5740 5738 5736
5634 5639 5642 5646 5649 5653 5656 5659 5663 5666 5669 5672 5675 5679 5682 5685 5688 5690 5693 5696 5699 5702 5705 5707 5710 5712 5715 5718 5719 5722 5723 5725 5727 5729 5731 5733 5736 5738 5740 5741 5743 5744 5745 5746 5747 5748 5749 5750 5750 5751 5751 5751 5751 5751 5751 5751 5751 5751 5751 5751 5751 5751 5751 5751 5751 5751 5751 5751 5751 5750 5750 5749 5749 5748 5748 5747 5746 5745 5743 5742 5740 5739 5737 5735 5733 5732
5632 5637 5640 5644 5647 5650 5653 5657 5660 5664 5666 5669 5672 5676 5679 5682 5686 5688 5691 5694 5696 5699 5702 5705 5707 5709 5712 5714 5716 5718 5720 5721 5723 5725 5728 5730 5732 5734 5736 5738 5739 5741 5742 5743 5744 5745 5746 5746 5747 5747 5747 5747 5747 5747 5747 5746 5746 5746 5746 5746 5746 5747 5747 5747 5747 5747 5747 5747 5746 5746 5746 5745 5745 5744 5744 5743 5742 5740 5739 5737 5736 5734 5732 5730 5729 5727
5630 5635 5638 5641 5644 5647 5650 5654 5658 5661 5664 5666 5670 5673 5677 5680 5683 5685 5688 5690 5693 5696 5699 5701 5703 5706 5708 5710 5712 5714 5716 5718 5720 5722 5725 5727 5729 5731 5733 5734 5736 5737 5738 5739 5740 5741 5742 5743 5743 5743 5743 5743 5743 5743 5743 5743 5742 5742 5741 5741 5741 5742 5742 5742 5743 5743 5743 5742 5742 5742 5742 5742 5741 5740 5740 5738 5737 5736 5734 5732 5731 5729 5727 5725 5724 5722
5629 5633 5636 5639 5642 5645 5648 5651 5655 5658 5661 5664 5667 5671 5674 5677 5680 5682 5685 5687 5690 5693 5695 5697 5700 5703 5705 5707 5709 5711 5713 5715 5717 5720 5722 5724 5725 5727 5729 5730 5731 5733 5734 5735 5736 5737 5738 5738 5739 5739 5739 5739 5739 5739 5739 5739 5738 5738 5737 5736 5736 5736 5737 5738 5738 5738 5739 5738 5738 5738 5738 5738 5737 5736 5735 5734 5733 5731 5729 5728 5726 5724 5722 5720 5718 5717
5628 5631 5634 5637 5640 5643 5646 5649 5653 5656 5659 5662 5665 5668 5671 5674 5677 5680 5683 5685 5688 5690 5693 5695 5699 5701 5703 5704 5706 5708 5710 5713 5715 5717 5719 5720 5722 5723 5724 5726 5727 5729 5730 5731 5732 5733 5734 5734 5735 5735 5735 5735 5735 5735 5735 5735 5734 5734 5733 5733 5732 5732 5733 5734 5734 5735 5735 5735 5734 5734 5734 5734 5733 5732 5731 5730 5728 5727 5725 5723 5721 5719 5717 5715 5713 5711
5627 5631 5633 5636 5639 5642 5644 5648 5651 5653 5656 5660 5663 5666 5669 5672 5675 5677 5680 5683 5686 5688 5691 5694 5696 5698 5700 5702 5704 5705 5708 5710 5712 5714 5715 5716 5717 5719 5721 5722 5724 5726 5727 5728 5729 5729 5730 5731 5731 5731 5731 5731 5731 5731 5731 5731 5730 5729 5729 5730 5730 5729 5729 5730 5731 5731 5731 5731 5731 5730 5730 5729 5729 5728 5727 5725 5724 5722 5720 5718 5716 5714 5712 5710 5708 5706
5627 5630 5632 5635 5638 5640 5643 5647 5649 5651 5654 5658 5661 5664 5667 5670 5672 5675 5677 5680 5683 5686 5688 5691 5693 5695 5697 5699 5701 5702 5704 5706 5708 5710 5711 5712 5714 5716 5718 5720 5721 5722 5723 5724 5725 5726 5727 5727 5727 5727 5728 5727 5727 5727 5727 5727 5727 5726 5726 5726 5726 5726 5726 5726 5727 5727 5727 5727 5727 5727 5726 5725 5724 5723 5722 5720 5719 5717 5715 5713 5711 5709 5708 5705 5703 5701
5626 5629 5631 5633 5636 5638 5641 5644 5646 5649 5653 5656 5659 5662 5665 5667 5669 5672 5675 5677 5680 5683 5685 5688 5690 5692 5694 5696 5698 5700 5701 5703 5705 5707 5708 5710 5711 5713 5715 5717 5718 5719 5720 5721 5721 5722 5723 5723 5724 5724 5724 5724 5724 5724 5723 5723 5723 5723 5723 5723 5723 5723 5723 5723 5724 5724 5724 5723 5723 5723 5722 5721 5720 5719 5717 5716 5714 5712 5710 5708 5707 5705 5703 5701 5698 5696
5625 5627 5630 5632 5635 5637 5640 5642 5645 5648 5651 5654 5657 5660 5662 5664 5667 5669 5672 5674 5677 5679 5682 5684 5686 5688 5691 5694 5696 5697 5699 5701 5702 5704 5705 5707 5709 5711 5712 5714 5715 5715 5716 5717 5718 5719 5719 5720 5720 5720 5720 5720 5720 5720 5720 5720 5719 5719 5720 5720 5720 5720 5720 5720 5720 5720 5720 5720 5719 5719 5718 5717 5716 5714 5713 5711 5710 5708 5706 5704 5702 5700 5698 5696 5693 5691
5623 5626 5629 5632 5634 5636 5639 5641 5644 5646 5649 5653 5656 5658 5660 5662 5664 5666 5669 5671 5674 5676 5679 5681 5683 5685 5688 5691 5693 5694 5696 5697 5699 5701 5703 5705 5706 5708 5709 5710 5711 5712 5712 5713 5714 5715 5715 5716 5716 5716 5716 5716 5716 5717 5717 5717 5716 5716 5716 5717 5717 5717 5717 5717 5717 5717 5717 5716 5716 5715 5714 5713 5712 5710 5709 5707 5705 5703 5701 5700 5698 5696 5694 5691 5689 5687
5622 5625 5628 5631 5633 5635 5638 5640 5642 5644 5648 5651 5653 5655 5657 5660 5662 5664 5665 5668 5671 5673 5676 5679 5681 5683 5685 5687 5690 5691 5692 5694 5697 5699 5700 5702 5703 5704 5705 5706 5707 5708 5709 5710 5711 5712 5712 5712 5712 5713 5713 5713 5713 5713 5713 5714 5714 5714 5714 5714 5714 5714 5714 5714 5714 5714 5713 5713 5712 5712 5711 5709 5708 5706 5705 5703 5701 5699 5697 5695 5694 5692 5690 5688 5685 5683
5621 5624 5626 5628 5630 5633 5636 5638 5640 5643 5646 5649 5651 5652 5654 5657 5659 5661 5662 5665 5669 5671 5673 5676 5678 5680 5682 5684 5686 5688 5690 5692 5695 5696 5697 5698 5699 5700 5701 5702 5703 5704 5705 5707 5708 5708 5709 5709 5709 5709 5709 5709 5710 5710 5710 5711 5711 5711 5712 5712 5712 5712 5712 5711 5711 5710 5710 5710 5709 5708 5707 5705 5704 5702 5700 5699 5697 5695 5693 5692 5690 5688 5686 5684 5681 5679
5619 5622 5624 5626 5629 5631 5633 5636 5638 5640 5643 5646 5648 5650 5652 5654 5656 5658 5661 5663 5666 5668 5670 5672 5674 5676 5678 5680 5682 5685 5687 5689 5691 5691 5692 5693 5694 5696 5697 5698 5699 5700 5701 5702 5703 5704 5704 5705 5705 5706 5706 5706 5707 5707 5708 5708 5709 5709 5709 5709 5709 5709 5709 5708 5708 5707 5707 5706 5706 5704 5703 5701 5700 5698 5697 5695 5694 5692 5690 5688 5686 5685 5682 5680 5677 5674
5619 5621 5623 5625 5628 5630 5632 5634 5636 5638 5641 5644 5646 5647 5649 5652 5654 5657 5660 5661 5662 5665 5667 5669 5671 5673 5675 5677 5679 5681 5683 5684 5686 5687 5688 5689 5691 5693 5694 5694 5695 5696 5697 5698 5698 5699 5700 5701 5702 5702 5703 5704 5704 5705 5705 5706 5706 5706 5706 5706 5706 5706 5706 5705 5705 5704 5704 5703 5702 5700 5698 5697 5696 5695 5694 5692 5690 5689 5687 5685 5683 5681 5679 5676 5673 5670
5618 5620 5622 5625 5627 5629 5631 5632 5634 5637 5640 5642 5644 5645 5648 5650 5652 5655 5656 5657 5660 5663 5664 5666 5668 5670 5671 5673 5675 5677 5679 5680 5681 5683 5684 5686 5688 5689 5690 5691 5692 5692 5693 5693 5694 5695 5697 5698 5698 5699 5700 5701 5702 5702 5702 5703 5703 5703 5703 5703 5703 5703 5703 5702 5701 5700 5700 5699 5698 5696 5695 5694 5693 5692 5690 5689 5688 5686 5684 5682 5680 5678 5675 5673 5670 5667
5618 5619 5621 5624 5626 5628 5630 5631 5634 5637 5639 5640 5641 5642 5645 5646 5648 5651 5653 5655 5657 5659 5661 5662 5664 5666 5668 5670 5672 5673 5675 5676 5677 5679 5681 5682 5683 5685 5686 5687 5688 5688 5689 5689 5690 5692 5693 5694 5695 5696 5697 5698 5699 5699 5700 5700 5700 5700 5700 5700 5700 5700 5699 5698 5698 5697 5696 5695 5694 5693 5692 5691 5690 5689 5687 5686 5685 5683 5681 5679 5677 5675 5672 5670 5667 5664
5617 5619 5621 5623 5625 5627 5629 5630 5632 5634 5635 5636 5637 5638 5640 5642 5644 5647 5650 5652 5654 5656 5658 5659 5660 5662 5665 5667 5669 5670 5671 5672 5674 5676 5677 5678 5680 5681 5682 5683 5684 5684 5685 5686 5687 5688 5690 5691 5692 5693 5694 5695 5696 5696 5697 5697 5697 5697 5697 5697 5697 5696 5696 5695 5694 5693 5692 5692 5691 5690 5689 5688 5687 5686 5684 5683 5682 5681 5679 5677 5674 5672 5670 5667 5664 5661
5616 5618 5620 5621 5623 5625 5626 5628 5629 5631 5632 5633 5633 5635 5637 5638 5641 5644 5646 5648 5651 5653 5654 5655 5657 5659 5662 5664 5665 5666 5667 5669 5671 5672 5673 5675 5676 5677 5679 5680 5680 5681 5681 5682 5683 5685 5687 5688 5689 5690 5691 5692 5693 5693 5694 5694 5694 5694 5694 5694 5693 5693 5692 5691 5690 5690 5689 5689 5688 5688 5687 5686 5684 5683 5682 5681 5679 5678 5676 5674 5672 5669 5667 5665 5662 5660
5615 5617 5618 5620 5621 5622 5624 5625 5627 5628 5629 5630 5631 5632 5633 5635 5637 5640 5643 5645 5648 5650 5651 5652 5654 5656 5659 5661 5662 5663 5664 5666 5667 5668 5670 5672 5673 5674 5675 5676 5677 5678 5679 5680 5681 5682 5684 5685 5686 5687 5688 5689 5690 5691 5691 5691 5691 5691 5690 5690 5690 5689 5688 5688 5687 5687 5687 5686 5686 5685 5684 5683 5682 5681 5679 5678 5677 5675 5674 5672 5670 5667 5665 5663 5660 5658
5613 5615 5616 5617 5619 5620 5621 5623 5624 5625 5626 5627 5628 5629 5631 5632 5634 5637 5640 5642 5645 5647 5648 5649 5651 5653 5656 5657 5658 5660 5661 5663 5664 5665 5667 5668 5670 5671 5672 5674 5675 5676 5678 5679 5679 5680 5681 5682 5683 5685 5686 5686 5687 5687 5687 5688 5688 5687 5687 5687 5686 5686 5685 5685 5685 5685 5684 5684 5683 5683 5682 5681 5680 5679 5677 5675 5674 5673 5672 5670 5668 5665 5663 5661 5659 5656
5611 5613 5614 5615 5616 5617 5618 5620 5621 5622 5623 5625 5626 5627 5628 5630 5632 5634 5637 5639 5642 5644 5645 5647 5648 5650 5652 5653 5655 5657 5658 5660 5661 5662 5664 5665 5667 5669 5670 5671 5673 5675 5676 5676 5677 5677 5679 5680 5681 5682 5683 5683 5684 5684 5684 5684 5684 5684 5684 5683 5683 5683 5683 5683 5682 5682 5682 5681 5681 5680 5679 5678 5677 5676 5675 5673 5672 5671 5669 5668 5666 5664 5662 5660 5657 5654
5609 5611 5612 5613 5613 5614 5615 5615 5617 5618 5620 5622 5623 5624 5626 5627 5629 5632 5634 5636 5639 5641 5643 5644 5645 5647 5648 5650 5652 5654 5655 5656 5658 5660 5661 5663 5665 5666 5668 5669 5671 5672 5673 5674 5675 5675 5676 5677 5678 5679 5680 5680 5681 5681 5681 5681 5681 5681 5681 5680 5681 5681 5681 5681 5680 5680 5679 5679 5679 5678 5677 5676 5675 5674 5672 5671 5670 5668 5667 5665 5664 5662 5660 5658 5655 5653
5607 5608 5609 5610 5611 5611 5612 5613 5614 5616 5617 5619 5620 5622 5623 5625 5627 5629 5631 5634 5636 5638 5640 5641 5643 5644 5645 5647 5649 5651 5652 5654 5656 5658 5659 5661 5662 5664 5665 5667 5668 5669 5670 5671 5672 5673 5674 5675 5675 5676 5676 5677 5677 5677 5677 5678 5678 5678 5678 5678 5678 5679 5679 5679 5678 5677 5677 5676 5676 5675 5674 5673 5672 5671 5670 5669 5667 5666 5665 5663 5662 5660 5658 5656 5654 5651